Location: Dugenta
(41.1333°N, 14.4500°E)
Time: 10:42:32
(UTC+00:00)

Meteor 2-4 Rocket - Pass Details

Date: 03 March 2021
Orbit: 799 x 908 km, 81.2° (Epoch: 20 April)

Event Time Altitude Azimuth Distance (km) Brightness Sun altitude
Rises 18:47:29 0° 345° (NNW) 3,497 7.2 -21.8°
Reaches altitude 10° 18:49:57 10° 342° (NNW) 2,566 6.6 -22.3°
Maximum altitude 18:55:40 56° 265° (W) 1,065 4.5 -23.3°
Drops below altitude 10° 19:01:25 10° 189° (S) 2,583 6.2 -24.4°
Sets 19:03:55 0° 185° (S) 3,521 6.8 -24.8°
